Location: Beaver Dam Church
(34.5318°N, 88.9828°W)
Time: 00:34:47
(UTC+00:00)

NOSS 3-3 (A) - Pass Details

Date: 29 October 2020
Orbit: 819 x 1393 km, 63.4° (Epoch: 29 November)

Event Time Altitude Azimuth Distance (km) Brightness Sun altitude
Rises 23:21:13 0° 196° (SSW) 3,338 7.3 -4.1°
Reaches altitude 10° 23:23:37 10° 192° (SSW) 2,429 6.5 -4.6°
Maximum altitude 23:29:01 55° 115° (ESE) 1,042 4.0 -5.7°
Drops below altitude 10° 23:34:59 10° 40° (NE) 2,675 5.8 -6.9°
Sets 23:37:44 0° 36° (NE) 3,706 6.6 -7.4°
